Regional Weather Roundup
Issued by NWS

Home | Current Version | Previous Version | Text Only | Print | Product List | Glossary Off
Versions: 1 2 3 4 5 6 7 8 9 10 11 12 13 14 15 16 17 18 19 20 21 22 23 24 25 26 27 28 29 30 31 32 33 34 35 36 37 38 39 40 41 42 43 44 45 46 47 48 49 50

000
ASUS43 KBIS 311902
RWRND

NORTH DAKOTA REGIONAL WEATHER ROUNDUP
NATIONAL WEATHER SERVICE BISMARCK ND
200 PM CDT MON AUG 31 2015

NOTE: "FAIR" INDICATES FEW OR NO CLOUDS BELOW 12,000 FEET WITH NO
SIGNIFICANT WEATHER AND/OR OBSTRUCTIONS TO VISIBILITY.


NDZ001>003-009>011-017-312000-
NORTHWEST NORTH DAKOTA

CITY           SKY/WX    TMP DP  RH WIND       PRES   REMARKS
WILLISTON      SUNNY     75  38  26 W21G26    29.87S
MINOT          SUNNY     75  42  30 W17G23    29.83F
MINOT AFB      SUNNY     77  40  27 W16       29.82R
$$

NDZ018>021-031>035-040>046-312000-
SOUTHWEST NORTH DAKOTA

CITY           SKY/WX    TMP DP  RH WIND       PRES   REMARKS
BISMARCK       PTSUNNY   78  50  37 NW12      29.89F
DICKINSON      MOSUNNY   76  38  25 W15G21    29.92F
GARRISON         N/A     75  41  29 W20G25    29.88S
HETTINGER ARPT PTSUNNY   77  41  27 W13G21    29.96F
$$

NDZ004>008-012>016-024-026-027-054-312000-
NORTHEAST NORTH DAKOTA

CITY           SKY/WX    TMP DP  RH WIND       PRES   REMARKS
GRAND FORKS    PTSUNNY   77  61  57 NW9       29.77R
GRND FRKS AFB  PTSUNNY   79  60  51 VRB2      29.77S
DEVILS LAKE    PTSUNNY   75  52  43 W18G24    29.80S
$$

NDZ022-023-025-028>030-036>039-047>053-312000-
SOUTHEAST NORTH DAKOTA

CITY           SKY/WX    TMP DP  RH WIND       PRES   REMARKS
FARGO          CLOUDY    79  66  64 NW10G17   29.76S
JAMESTOWN      MOSUNNY   77  59  53 NW7       29.83S
$$




USA.gov is the U.S. government's official web portal to all federal, state and local government web resources and services.